Time,TemperatureF,DewpointF,PressureIn,WindDirection,WindDirectionDegrees,WindSpeedMPH,WindSpeedGustMPH,Humidity,HourlyPrecipIn,Conditions,Clouds,dailyrainin,SolarRadiationWatts/m^2,SoftwareType,DateUTC
2013-05-22 00:02:00,45.0,21.0,-100.00,NW,318,1.0,2.0,39,0.00,,,0.00,0.000000,,2013-05-22 08:02:00,
2013-05-22 00:11:00,45.0,21.0,-100.00,NW,318,1.0,2.0,39,0.00,,,0.00,0.000000,,2013-05-22 08:11:00,
2013-05-22 00:21:00,45.0,21.0,-100.00,NW,318,1.0,2.0,39,0.00,,,0.00,0.000000,,2013-05-22 08:21:00,
2013-05-22 00:42:00,45.0,24.0,-100.00,NW,314,1.0,2.0,44,0.00,,,0.00,0.000000,,2013-05-22 08:42:00,
2013-05-22 00:52:00,45.0,24.0,-100.00,NW,314,1.0,2.0,44,0.00,,,0.00,0.000000,,2013-05-22 08:52:00,
2013-05-22 01:01:00,45.0,24.0,-100.00,NW,314,1.0,2.0,44,0.00,,,0.00,0.000000,,2013-05-22 09:01:00,
2013-05-22 01:11:00,45.0,24.0,-100.00,NW,314,1.0,2.0,44,0.00,,,0.00,0.000000,,2013-05-22 09:11:00,
2013-05-22 01:21:00,45.0,24.0,-100.00,NW,314,1.0,2.0,44,0.00,,,0.00,0.000000,,2013-05-22 09:21:00,
2013-05-22 01:42:00,45.0,23.0,-100.00,NW,319,2.0,3.0,43,0.00,,,0.00,0.000000,,2013-05-22 09:42:00,
2013-05-22 01:53:00,45.0,23.0,-100.00,NW,319,2.0,3.0,43,0.00,,,0.00,0.000000,,2013-05-22 09:53:00,
2013-05-22 02:02:00,45.0,23.0,-100.00,NW,319,2.0,3.0,43,0.00,,,0.00,0.000000,,2013-05-22 10:02:00,
2013-05-22 02:12:00,45.0,23.0,-100.00,NW,319,2.0,3.0,43,0.00,,,0.00,0.000000,,2013-05-22 10:12:00,
2013-05-22 02:22:00,45.0,23.0,-100.00,NW,319,2.0,3.0,43,0.00,,,0.00,0.000000,,2013-05-22 10:22:00,
2013-05-22 02:42:00,45.0,26.0,-100.00,NW,315,2.0,4.0,47,0.00,,,0.00,0.000000,,2013-05-22 10:42:00,
2013-05-22 02:52:00,45.0,26.0,-100.00,NW,315,2.0,4.0,47,0.00,,,0.00,0.000000,,2013-05-22 10:52:00,
2013-05-22 03:02:00,45.0,26.0,-100.00,NW,315,2.0,4.0,47,0.00,,,0.00,0.000000,,2013-05-22 11:02:00,
2013-05-22 03:11:00,45.0,26.0,-100.00,NW,315,2.0,4.0,47,0.00,,,0.00,0.000000,,2013-05-22 11:11:00,
2013-05-22 03:21:00,45.0,26.0,-100.00,NW,315,2.0,4.0,47,0.00,,,0.00,0.000000,,2013-05-22 11:21:00,
2013-05-22 03:42:00,45.0,25.0,-100.00,NW,324,2.0,5.0,46,0.00,,,0.00,0.000000,,2013-05-22 11:42:00,
2013-05-22 03:52:00,45.0,25.0,-100.00,NW,324,2.0,5.0,46,0.00,,,0.00,0.000000,,2013-05-22 11:52:00,
2013-05-22 04:02:00,45.0,25.0,-100.00,NW,324,2.0,5.0,46,0.00,,,0.00,0.000000,,2013-05-22 12:02:00,
2013-05-22 04:11:00,45.0,25.0,-100.00,NW,324,2.0,5.0,46,0.00,,,0.00,0.000000,,2013-05-22 12:11:00,
2013-05-22 04:22:00,45.0,25.0,-100.00,NW,324,2.0,5.0,46,0.00,,,0.00,0.000000,,2013-05-22 12:22:00,
2013-05-22 04:42:00,45.0,30.0,-100.00,NNW,345,2.0,4.0,57,0.00,,,0.00,0.000000,,2013-05-22 12:42:00,
2013-05-22 04:52:00,45.0,30.0,-100.00,NNW,345,2.0,4.0,57,0.00,,,0.00,0.000000,,2013-05-22 12:52:00,
2013-05-22 05:01:00,45.0,30.0,-100.00,NNW,345,2.0,4.0,57,0.00,,,0.00,0.000000,,2013-05-22 13:01:00,
2013-05-22 05:11:00,45.0,30.0,-100.00,NNW,345,2.0,4.0,57,0.00,,,0.00,0.000000,,2013-05-22 13:11:00,
2013-05-22 05:21:00,45.0,30.0,-100.00,NNW,345,2.0,4.0,57,0.00,,,0.00,0.000000,,2013-05-22 13:21:00,
2013-05-22 05:42:00,45.0,32.0,-100.00,NNW,344,1.0,3.0,61,0.00,,,0.00,5.000000,,2013-05-22 13:42:00,
2013-05-22 05:52:00,45.0,32.0,-100.00,NNW,344,1.0,3.0,61,0.00,,,0.00,5.000000,,2013-05-22 13:52:00,
2013-05-22 06:02:00,45.0,32.0,-100.00,NNW,344,1.0,3.0,61,0.00,,,0.00,5.000000,,2013-05-22 14:02:00,
2013-05-22 06:11:00,45.0,32.0,-100.00,NNW,344,1.0,3.0,61,0.00,,,0.00,5.000000,,2013-05-22 14:11:00,
2013-05-22 06:21:00,45.0,32.0,-100.00,NNW,344,1.0,3.0,61,0.00,,,0.00,5.000000,,2013-05-22 14:21:00,
2013-05-22 06:42:00,46.0,28.0,-100.00,NNW,344,2.0,7.0,48,0.00,,,0.00,48.000000,,2013-05-22 14:42:00,
2013-05-22 06:52:00,46.0,28.0,-100.00,NNW,344,2.0,7.0,48,0.00,,,0.00,48.000000,,2013-05-22 14:52:00,
2013-05-22 07:01:00,46.0,28.0,-100.00,NNW,344,2.0,7.0,48,0.00,,,0.00,48.000000,,2013-05-22 15:01:00,
2013-05-22 07:11:00,46.0,28.0,-100.00,NNW,344,2.0,7.0,48,0.00,,,0.00,48.000000,,2013-05-22 15:11:00,
2013-05-22 07:21:00,46.0,28.0,-100.00,NNW,344,2.0,7.0,48,0.00,,,0.00,48.000000,,2013-05-22 15:21:00,
2013-05-22 07:43:00,48.0,31.0,-100.00,NW,325,1.0,6.0,51,0.00,,,0.00,79.000000,,2013-05-22 15:43:00,
2013-05-22 07:53:00,48.0,31.0,-100.00,NW,325,1.0,6.0,51,0.00,,,0.00,79.000000,,2013-05-22 15:53:00,
2013-05-22 08:03:00,48.0,31.0,-100.00,NW,325,1.0,6.0,51,0.00,,,0.00,79.000000,,2013-05-22 16:03:00,
2013-05-22 08:12:00,48.0,31.0,-100.00,NW,325,1.0,6.0,51,0.00,,,0.00,79.000000,,2013-05-22 16:12:00,
2013-05-22 08:22:00,48.0,31.0,-100.00,NW,325,1.0,6.0,51,0.00,,,0.00,79.000000,,2013-05-22 16:22:00,
2013-05-22 08:42:00,48.0,30.0,-100.00,NW,304,3.0,6.0,50,0.00,,,0.00,84.000000,,2013-05-22 16:42:00,
2013-05-22 08:52:00,48.0,30.0,-100.00,NW,304,3.0,6.0,50,0.00,,,0.00,84.000000,,2013-05-22 16:52:00,
2013-05-22 09:02:00,48.0,30.0,-100.00,NW,304,3.0,6.0,50,0.00,,,0.00,84.000000,,2013-05-22 17:02:00,
2013-05-22 09:11:00,48.0,30.0,-100.00,NW,304,3.0,6.0,50,0.00,,,0.00,84.000000,,2013-05-22 17:11:00,
2013-05-22 09:22:00,48.0,30.0,-100.00,NW,304,3.0,6.0,50,0.00,,,0.00,84.000000,,2013-05-22 17:22:00,
2013-05-22 09:42:00,46.0,31.0,-100.00,WNW,287,4.0,8.0,54,0.00,,,0.00,169.000000,,2013-05-22 17:42:00,
2013-05-22 09:53:00,46.0,31.0,-100.00,WNW,287,4.0,8.0,54,0.00,,,0.00,169.000000,,2013-05-22 17:53:00,
2013-05-22 10:02:00,46.0,31.0,-100.00,WNW,287,4.0,8.0,54,0.00,,,0.00,169.000000,,2013-05-22 18:02:00,
2013-05-22 10:14:00,46.0,31.0,-100.00,WNW,287,4.0,8.0,54,0.00,,,0.00,169.000000,,2013-05-22 18:14:00,
2013-05-22 10:22:00,46.0,31.0,-100.00,WNW,287,4.0,8.0,54,0.00,,,0.00,169.000000,,2013-05-22 18:22:00,
2013-05-22 10:42:00,46.0,29.0,-100.00,WNW,289,3.0,8.0,51,0.00,,,0.00,184.000000,,2013-05-22 18:42:00,
2013-05-22 10:52:00,46.0,29.0,-100.00,WNW,289,3.0,8.0,51,0.00,,,0.00,184.000000,,2013-05-22 18:52:00,
2013-05-22 11:02:00,46.0,29.0,-100.00,WNW,289,3.0,8.0,51,0.00,,,0.00,184.000000,,2013-05-22 19:02:00,
2013-05-22 11:11:00,46.0,29.0,-100.00,WNW,289,3.0,8.0,51,0.00,,,0.00,184.000000,,2013-05-22 19:11:00,
2013-05-22 11:21:00,46.0,29.0,-100.00,WNW,289,3.0,8.0,51,0.00,,,0.00,184.000000,,2013-05-22 19:21:00,
2013-05-22 11:42:00,48.0,31.0,-100.00,WNW,289,3.0,8.0,51,0.00,,,0.00,267.000000,,2013-05-22 19:42:00,
2013-05-22 11:52:00,48.0,31.0,-100.00,WNW,289,3.0,8.0,51,0.00,,,0.00,267.000000,,2013-05-22 19:52:00,
2013-05-22 12:02:00,48.0,31.0,-100.00,WNW,289,3.0,8.0,51,0.00,,,0.00,267.000000,,2013-05-22 20:02:00,
2013-05-22 12:11:00,48.0,31.0,-100.00,WNW,289,3.0,8.0,51,0.00,,,0.00,267.000000,,2013-05-22 20:11:00,
2013-05-22 12:21:00,48.0,31.0,-100.00,WNW,289,3.0,8.0,51,0.00,,,0.00,267.000000,,2013-05-22 20:21:00,
2013-05-22 12:42:00,48.0,32.0,-100.00,West,273,4.0,6.0,54,0.00,,,0.00,264.000000,,2013-05-22 20:42:00,
2013-05-22 12:52:00,48.0,32.0,-100.00,West,273,4.0,6.0,54,0.00,,,0.00,264.000000,,2013-05-22 20:52:00,
2013-05-22 13:01:00,48.0,32.0,-100.00,West,273,4.0,6.0,54,0.00,,,0.00,264.000000,,2013-05-22 21:01:00,
2013-05-22 13:11:00,48.0,32.0,-100.00,West,273,4.0,6.0,54,0.00,,,0.00,264.000000,,2013-05-22 21:11:00,
2013-05-22 13:21:00,48.0,32.0,-100.00,West,273,4.0,6.0,54,0.00,,,0.00,264.000000,,2013-05-22 21:21:00,
2013-05-22 13:42:00,46.0,30.0,-100.00,West,276,4.0,7.0,53,0.00,,,0.00,344.000000,,2013-05-22 21:42:00,
2013-05-22 13:53:00,46.0,30.0,-100.00,West,276,4.0,7.0,53,0.00,,,0.00,344.000000,,2013-05-22 21:53:00,
2013-05-22 14:03:00,46.0,30.0,-100.00,West,276,4.0,7.0,53,0.00,,,0.00,344.000000,,2013-05-22 22:03:00,
2013-05-22 14:12:00,46.0,30.0,-100.00,West,276,4.0,7.0,53,0.00,,,0.00,344.000000,,2013-05-22 22:12:00,
2013-05-22 14:22:00,46.0,30.0,-100.00,West,276,4.0,7.0,53,0.00,,,0.00,344.000000,,2013-05-22 22:22:00,
2013-05-22 14:42:00,48.0,31.0,-100.00,SW,232,2.0,5.0,52,0.00,,,0.00,476.000000,,2013-05-22 22:42:00,
2013-05-22 14:52:00,48.0,31.0,-100.00,SW,232,2.0,5.0,52,0.00,,,0.00,476.000000,,2013-05-22 22:52:00,
2013-05-22 15:02:00,48.0,31.0,-100.00,SW,232,2.0,5.0,52,0.00,,,0.00,476.000000,,2013-05-22 23:02:00,
2013-05-22 15:12:00,48.0,31.0,-100.00,SW,232,2.0,5.0,52,0.00,,,0.00,476.000000,,2013-05-22 23:12:00,
2013-05-22 15:21:00,48.0,31.0,-100.00,SW,232,2.0,5.0,52,0.00,,,0.00,476.000000,,2013-05-22 23:21:00,
2013-05-22 15:42:00,50.0,31.0,-100.00,West,275,2.0,6.0,47,0.00,,,0.00,504.000000,,2013-05-22 23:42:00,
2013-05-22 15:52:00,50.0,31.0,-100.00,West,275,2.0,6.0,47,0.00,,,0.00,504.000000,,2013-05-22 23:52:00,
2013-05-22 16:01:00,50.0,31.0,-100.00,West,275,2.0,6.0,47,0.00,,,0.00,504.000000,,2013-05-23 00:01:00,
2013-05-22 16:11:00,50.0,31.0,-100.00,West,275,2.0,6.0,47,0.00,,,0.00,504.000000,,2013-05-23 00:11:00,
2013-05-22 16:21:00,50.0,31.0,-100.00,West,275,2.0,6.0,47,0.00,,,0.00,504.000000,,2013-05-23 00:21:00,
2013-05-22 16:42:00,50.0,29.0,-100.00,West,280,2.0,5.0,45,0.00,,,0.00,611.000000,,2013-05-23 00:42:00,
2013-05-22 16:52:00,50.0,29.0,-100.00,West,280,2.0,5.0,45,0.00,,,0.00,611.000000,,2013-05-23 00:52:00,
2013-05-22 17:01:00,50.0,29.0,-100.00,West,280,2.0,5.0,45,0.00,,,0.00,611.000000,,2013-05-23 01:01:00,
2013-05-22 17:11:00,50.0,29.0,-100.00,West,280,2.0,5.0,45,0.00,,,0.00,611.000000,,2013-05-23 01:11:00,
2013-05-22 17:21:00,50.0,29.0,-100.00,West,280,2.0,5.0,45,0.00,,,0.00,611.000000,,2013-05-23 01:21:00,
2013-05-22 17:42:00,52.0,31.0,-100.00,West,277,3.0,5.0,44,0.00,,,0.00,521.000000,,2013-05-23 01:42:00,
2013-05-22 17:52:00,52.0,31.0,-100.00,West,277,3.0,5.0,44,0.00,,,0.00,521.000000,,2013-05-23 01:52:00,
2013-05-22 18:01:00,52.0,31.0,-100.00,West,277,3.0,5.0,44,0.00,,,0.00,521.000000,,2013-05-23 02:01:00,
2013-05-22 18:11:00,52.0,31.0,-100.00,West,277,3.0,5.0,44,0.00,,,0.00,521.000000,,2013-05-23 02:11:00,
2013-05-22 18:21:00,52.0,31.0,-100.00,West,277,3.0,5.0,44,0.00,,,0.00,521.000000,,2013-05-23 02:21:00,
2013-05-22 19:01:00,50.0,33.0,-100.00,West,268,2.0,5.0,51,0.00,,,0.00,226.000000,,2013-05-23 03:01:00,
2013-05-22 19:11:00,50.0,33.0,-100.00,West,268,2.0,5.0,51,0.00,,,0.00,226.000000,,2013-05-23 03:11:00,
2013-05-22 19:21:00,50.0,33.0,-100.00,West,268,2.0,5.0,51,0.00,,,0.00,226.000000,,2013-05-23 03:21:00,
2013-05-22 19:43:00,46.0,37.0,-100.00,WNW,301,1.0,2.0,70,0.00,,,0.00,35.000000,,2013-05-23 03:43:00,
2013-05-22 19:53:00,46.0,37.0,-100.00,WNW,301,1.0,2.0,70,0.00,,,0.00,35.000000,,2013-05-23 03:53:00,
2013-05-22 20:12:00,46.0,37.0,-100.00,WNW,301,1.0,2.0,70,0.00,,,0.00,35.000000,,2013-05-23 04:12:00,
2013-05-22 20:43:00,43.0,35.0,-100.00,WNW,294,0.0,1.0,74,-99.99,,,0.00,21.000000,,2013-05-23 04:43:00,
2013-05-22 21:43:00,39.0,34.0,-100.00,WNW,284,0.0,1.0,82,-99.99,,,0.00,14.000000,,2013-05-23 05:43:00,
2013-05-22 22:42:00,37.0,34.0,-100.00,WNW,291,0.0,2.0,87,-99.99,,,0.00,5.000000,,2013-05-23 06:42:00,
2013-05-22 22:52:00,37.0,34.0,-100.00,WNW,291,0.0,2.0,87,-99.99,,,0.00,5.000000,,2013-05-23 06:52:00,
2013-05-22 23:42:00,34.0,31.0,-100.00,WNW,295,1.0,2.0,90,0.00,,,0.00,0.000000,,2013-05-23 07:42:00,